Stanton, MN

4:15 AM CST on December 09, 2019 (GMT -0600)
Stanton

Weather History for KSYN - October, 2019

Change the Weather History Date:

Wednesday, October 23, 2019

  Actual Average (WUND) Record (WUND)
Temperature  
Mean Temperature 38 °F -  
Max Temperature 44 °F - - (-1)
Min Temperature 32 °F - - (-1)
Degree Days  
Heating Degree Days 27    
Moisture  
Dew Point 33 °F    
Average Humidity 78    
Maximum Humidity 91    
Minimum Humidity 66    
Precipitation  
Precipitation 0.00 in - - ()
Sea Level Pressure  
Sea Level Pressure 29.89 in    
Wind  
Wind Speed 6 mph ()    
Max Wind Speed 12 mph    
Max Gust Speed -    
Visibility 10.0 miles    
Events      
Averages and records for this station are not official NWS values.
T = Trace of Precipitation, MM = Missing Value Source: Averaged Metar Reports

Daily Weather History Graph

Daily Weather History Graph

Search for Another Location

Airport or City:

Astronomy

Oct. 23, 2019 Rise Set
Actual Time 7:37 AM CDT 6:14 PM CDT
Civil Twilight 7:07 AM CDT 6:44 PM CDT
Nautical Twilight 6:33 AM CDT 7:18 PM CDT
Astronomical Twilight 5:59 AM CDT 7:52 PM CDT
Moon 1:39 AM CDT (10/23) 4:21 PM CDT (10/23)
Length of Visible Light 11h 37m
Length of Day
10h 37m
Waning Crescent, 26% of the Moon is Illuminated
Oct 23
Waning Crescent
Oct 27
New
Nov 4
First Quarter
Nov 12
Full
Nov 19
Last Quarter

Hourly Weather History & Observations

Time (CDT) Temp. Windchill Dew Point Humidity Pressure Visibility Wind Dir Wind Speed Gust Speed Precip Events Conditions
12:15 AM 39.9 °F 32.9 °F 31.3 °F 71% 29.72 in 10.0 mi West 11.5 mph - N/A   Clear
12:35 AM 39.0 °F 32.3 °F 31.5 °F 74% 29.71 in 10.0 mi West 10.4 mph - N/A   Clear
12:36 AM 39.0 °F 32.3 °F 31.5 °F 74% 29.71 in 10.0 mi West 10.4 mph - N/A   Clear
12:55 AM 38.1 °F 32.3 °F 31.3 °F 76% 29.71 in 10.0 mi West 8.1 mph - N/A   Clear
1:15 AM 37.6 °F 32.3 °F 31.1 °F 77% 29.71 in 10.0 mi West 6.9 mph - N/A   Clear
1:16 AM 37.6 °F 32.3 °F 31.1 °F 77% 29.71 in 10.0 mi West 6.9 mph - N/A   Clear
1:35 AM 37.4 °F 32.1 °F 31.1 °F 78% 29.72 in 10.0 mi WSW 6.9 mph - N/A   Clear
1:55 AM 36.7 °F 31.2 °F 30.9 °F 80% 29.72 in 10.0 mi WSW 6.9 mph - N/A   Clear
2:15 AM 36.1 °F 31.4 °F 30.9 °F 81% 29.73 in 10.0 mi WSW 5.8 mph - N/A   Clear
2:16 AM 36.1 °F 31.4 °F 30.9 °F 81% 29.73 in 10.0 mi WSW 5.8 mph - N/A   Clear
2:35 AM 36.1 °F 30.6 °F 30.9 °F 81% 29.74 in 10.0 mi WSW 6.9 mph - N/A   Clear
2:55 AM 36.0 °F 29.0 °F 31.1 °F 82% 29.75 in 10.0 mi WSW 9.2 mph - N/A   Clear
3:15 AM 35.8 °F 30.1 °F 30.9 °F 82% 29.75 in 10.0 mi WSW 6.9 mph - N/A   Clear
3:35 AM 35.1 °F 29.3 °F 30.7 °F 84% 29.75 in 10.0 mi WSW 6.9 mph - N/A   Clear
3:55 AM 34.7 °F 28.1 °F 30.6 °F 85% 29.75 in 10.0 mi WSW 8.1 mph - N/A   Clear
3:56 AM 34.7 °F 28.8 °F 30.6 °F 85% 29.75 in 10.0 mi WSW 6.9 mph - N/A   Clear
4:15 AM 34.5 °F 29.4 °F 30.6 °F 85% 29.76 in 10.0 mi WSW 5.8 mph - N/A   Clear
4:16 AM 34.5 °F 29.4 °F 30.4 °F 85% 29.76 in 10.0 mi WSW 5.8 mph - N/A   Clear
4:35 AM 33.8 °F 28.6 °F 30.2 °F 87% 29.77 in 10.0 mi WSW 5.8 mph - N/A   Clear
4:36 AM 33.8 °F 27.7 °F 30.2 °F 87% 29.77 in 10.0 mi WSW 6.9 mph - N/A   Clear
4:55 AM 33.8 °F 28.6 °F 30.2 °F 87% 29.78 in 10.0 mi WSW 5.8 mph - N/A   Clear
4:56 AM 33.8 °F 28.6 °F 30.0 °F 86% 29.78 in 10.0 mi WSW 5.8 mph - N/A   Clear
5:15 AM 33.1 °F 26.9 °F 30.0 °F 89% 29.78 in 10.0 mi SW 6.9 mph - N/A   Clear
5:16 AM 33.1 °F 26.9 °F 30.0 °F 89% 29.78 in 10.0 mi SW 6.9 mph - N/A   Clear
5:36 AM 33.8 °F 28.6 °F 30.6 °F 88% 29.79 in 10.0 mi WSW 5.8 mph - N/A   Clear
5:55 AM 33.8 °F 28.6 °F 30.2 °F 87% 29.79 in 10.0 mi WSW 5.8 mph - N/A   Clear
6:15 AM 33.8 °F 28.6 °F 30.2 °F 87% 29.80 in 10.0 mi WSW 5.8 mph - N/A   Clear
6:35 AM 33.1 °F 27.7 °F 30.2 °F 89% 29.80 in 10.0 mi SW 5.8 mph - N/A   Clear
6:55 AM 33.4 °F 29.1 °F 30.2 °F 88% 29.81 in 10.0 mi WSW 4.6 mph - N/A   Clear
7:15 AM 33.3 °F 27.9 °F 30.2 °F 89% 29.81 in 10.0 mi WSW 5.8 mph - N/A   Clear
7:35 AM 32.5 °F 26.2 °F 30.2 °F 91% 29.82 in 10.0 mi SW 6.9 mph - N/A   Clear
7:36 AM 32.5 °F 26.2 °F 30.2 °F 91% 29.82 in 10.0 mi SW 6.9 mph - N/A   Clear
7:55 AM 33.1 °F 27.7 °F 30.2 °F 89% 29.83 in 10.0 mi WSW 5.8 mph - N/A   Clear
8:15 AM 32.9 °F 26.7 °F 30.2 °F 90% 29.83 in 10.0 mi SW 6.9 mph - N/A   Clear
8:35 AM 33.1 °F 30.0 °F 30.2 °F 89% 29.84 in 10.0 mi WSW 3.5 mph - N/A   Clear
8:55 AM 34.3 °F 31.4 °F 30.9 °F 87% 29.85 in 10.0 mi SW 3.5 mph - N/A   Clear
9:15 AM 35.8 °F 31.9 °F 31.3 °F 84% 29.86 in 10.0 mi West 4.6 mph - N/A   Clear
9:16 AM 35.8 °F 31.9 °F 31.3 °F 84% 29.86 in 10.0 mi West 4.6 mph - N/A   Clear
9:35 AM 36.9 °F 30.7 °F 31.8 °F 82% 29.86 in 10.0 mi West 8.1 mph - N/A   Clear
9:36 AM 36.9 °F 30.7 °F 31.8 °F 82% 29.86 in 10.0 mi West 8.1 mph - N/A   Clear
9:55 AM 37.8 °F 33.3 °F 32.0 °F 80% 29.86 in 10.0 mi West 5.8 mph - N/A   Clear
9:56 AM 37.8 °F 32.5 °F 32.0 °F 80% 29.86 in 10.0 mi West 6.9 mph - N/A   Clear
10:15 AM 38.5 °F 35.0 °F 32.0 °F 78% 29.86 in 10.0 mi West 4.6 mph - N/A   Clear
10:16 AM 38.7 °F 35.2 °F 32.2 °F 78% 29.86 in 10.0 mi West 4.6 mph - N/A   Clear
10:35 AM 40.1 °F 35.3 °F 32.4 °F 74% 29.87 in 10.0 mi West 6.9 mph - N/A   Clear
10:55 AM 41.0 °F 36.4 °F 32.7 °F 72% 29.87 in 10.0 mi WNW 6.9 mph - N/A   Clear
11:15 AM 42.1 °F 39.2 °F 32.9 °F 70% 29.88 in 10.0 mi West 4.6 mph - N/A   Clear
11:35 AM 43.0 °F 40.3 °F 32.7 °F 67% 29.87 in 10.0 mi WNW 4.6 mph - N/A   Clear
11:55 AM 43.0 °F 39.5 °F 33.1 °F 68% 29.87 in 10.0 mi West 5.8 mph - N/A   Clear
12:15 PM 43.3 °F 39.9 °F 33.1 °F 67% 29.87 in 10.0 mi WNW 5.8 mph - N/A   Clear
12:35 PM 43.7 °F 39.7 °F 33.4 °F 67% 29.88 in 10.0 mi West 6.9 mph - N/A   Clear
12:36 PM 43.7 °F 39.7 °F 33.4 °F 67% 29.88 in 10.0 mi WNW 6.9 mph - N/A   Clear
12:55 PM 44.6 °F 40.7 °F 34.2 °F 67% 29.88 in 10.0 mi West 6.9 mph - N/A   Clear
1:15 PM 44.6 °F 40.2 °F 34.0 °F 66% 29.88 in 10.0 mi West 8.1 mph - N/A   Scattered Clouds
1:35 PM 44.6 °F 40.2 °F 34.7 °F 68% 29.88 in 10.0 mi WNW 8.1 mph - N/A   Clear
1:36 PM 44.6 °F 40.2 °F 34.7 °F 68% 29.88 in 10.0 mi West 8.1 mph - N/A   Clear
1:55 PM 44.4 °F 40.5 °F 35.1 °F 70% 29.88 in 10.0 mi West 6.9 mph - N/A   Scattered Clouds
2:15 PM 44.6 °F 40.7 °F 35.4 °F 70% 29.88 in 10.0 mi West 6.9 mph - N/A   Scattered Clouds
2:35 PM 44.6 °F 41.4 °F 34.9 °F 69% 29.88 in 10.0 mi NW 5.8 mph - N/A   Clear
2:55 PM 44.6 °F 40.2 °F 34.7 °F 68% 29.89 in 10.0 mi West 8.1 mph - N/A   Scattered Clouds
3:15 PM 44.6 °F 40.2 °F 34.9 °F 69% 29.90 in 10.0 mi WNW 8.1 mph - N/A   Scattered Clouds
3:16 PM 44.6 °F 40.2 °F 35.1 °F 69% 29.90 in 10.0 mi West 8.1 mph - N/A   Scattered Clouds
3:35 PM 44.6 °F 40.7 °F 34.5 °F 68% 29.92 in 10.0 mi West 6.9 mph - N/A   Clear
3:55 PM 44.6 °F 40.2 °F 35.1 °F 69% 29.92 in 10.0 mi WNW 8.1 mph - N/A   Clear
4:15 PM 44.2 °F 40.3 °F 35.1 °F 70% 29.93 in 10.0 mi West 6.9 mph - N/A   Clear
4:35 PM 44.2 °F 41.0 °F 35.4 °F 71% 29.93 in 10.0 mi West 5.8 mph - N/A   Scattered Clouds
4:36 PM 44.1 °F 40.8 °F 35.4 °F 72% 29.93 in 10.0 mi West 5.8 mph - N/A   Scattered Clouds
4:55 PM 44.1 °F 41.5 °F 35.1 °F 71% 29.93 in 10.0 mi West 4.6 mph - N/A   Mostly Cloudy
4:56 PM 44.1 °F 41.5 °F 35.1 °F 71% 29.93 in 10.0 mi West 4.6 mph - N/A   Mostly Cloudy
5:15 PM 43.9 °F 42.3 °F 36.0 °F 74% 29.94 in 10.0 mi West 3.5 mph - N/A   Mostly Cloudy
5:35 PM 43.9 °F 39.9 °F 36.0 °F 74% 29.96 in 10.0 mi North 6.9 mph - N/A   Overcast
5:36 PM 43.9 °F 39.3 °F 36.0 °F 74% 29.96 in 10.0 mi North 8.1 mph - N/A   Overcast
5:55 PM 43.0 °F 38.2 °F 34.7 °F 73% 29.97 in 10.0 mi North 8.1 mph - N/A   Mostly Cloudy
6:15 PM 41.5 °F 37.8 °F 34.3 °F 76% 29.98 in 10.0 mi North 5.8 mph - N/A   Scattered Clouds
6:16 PM 41.5 °F 38.6 °F 34.3 °F 76% 29.98 in 10.0 mi North 4.6 mph - N/A   Scattered Clouds
6:35 PM 41.2 °F 38.2 °F 34.2 °F 76% 30.00 in 10.0 mi North 4.6 mph - N/A   Scattered Clouds
6:55 PM 40.8 °F 38.8 °F 34.9 °F 79% 30.01 in 10.0 mi North 3.5 mph - N/A   Mostly Cloudy
7:15 PM 40.1 °F - 35.2 °F 83% 30.01 in 10.0 mi Calm Calm - N/A   Scattered Clouds
7:35 PM 40.3 °F - 34.9 °F 81% 30.03 in 10.0 mi Calm Calm - N/A   Scattered Clouds
7:55 PM 40.1 °F - 34.9 °F 82% 30.03 in 10.0 mi Calm Calm - N/A   Scattered Clouds
8:15 PM 40.1 °F - 35.8 °F 85% 30.04 in 10.0 mi Calm Calm - N/A   Overcast
8:16 PM 40.1 °F - 35.8 °F 85% 30.04 in 10.0 mi Calm Calm - N/A   Overcast
8:35 PM 40.1 °F - 36.0 °F 85% 30.05 in 10.0 mi Calm Calm - N/A   Overcast
8:36 PM 40.1 °F - 36.0 °F 85% 30.05 in 10.0 mi Calm Calm - N/A   Overcast
8:55 PM 40.3 °F 36.3 °F 35.1 °F 82% 30.06 in 10.0 mi NW 5.8 mph - N/A   Overcast
9:15 PM 39.9 °F 34.5 °F 33.8 °F 79% 30.07 in 10.0 mi NW 8.1 mph - N/A   Overcast
9:35 PM 40.6 °F 36.0 °F 32.5 °F 73% 30.07 in 10.0 mi NW 6.9 mph - N/A   Overcast
9:36 PM 40.6 °F 35.4 °F 32.5 °F 73% 30.07 in 10.0 mi NW 8.1 mph - N/A   Overcast
9:55 PM 40.5 °F 36.5 °F 32.4 °F 73% 30.08 in 10.0 mi NW 5.8 mph - N/A   Overcast
10:15 PM 39.6 °F 34.7 °F 32.2 °F 75% 30.10 in 10.0 mi NW 6.9 mph - N/A   Mostly Cloudy
10:35 PM 38.8 °F 34.6 °F 32.5 °F 78% 30.10 in 10.0 mi NW 5.8 mph - N/A   Mostly Cloudy
10:36 PM 39.0 °F 34.8 °F 32.5 °F 78% 30.10 in 10.0 mi NW 5.8 mph - N/A   Mostly Cloudy
10:55 PM 39.2 °F 35.9 °F 32.9 °F 78% 30.11 in 10.0 mi WNW 4.6 mph - N/A   Overcast
11:15 PM 39.7 °F 34.3 °F 33.1 °F 77% 30.12 in 10.0 mi WNW 8.1 mph - N/A   Overcast
11:16 PM 39.7 °F 34.3 °F 33.1 °F 77% 30.12 in 10.0 mi WNW 8.1 mph - N/A   Overcast
11:35 PM 39.2 °F 34.2 °F 33.3 °F 79% 30.12 in 10.0 mi WNW 6.9 mph - N/A   Overcast
11:55 PM 39.6 °F 35.4 °F 33.3 °F 78% 30.13 in 10.0 mi NW 5.8 mph - N/A   Overcast